Time,TemperatureF,DewpointF,PressureIn,WindDirection,WindDirectionDegrees,WindSpeedMPH,WindSpeedGustMPH,Humidity,HourlyPrecipIn,Conditions,Clouds,dailyrainin,SoftwareType,DateUTC
2013-02-28 00:01:00,33.0,33.0,29.56,WNW,299,2.0,4.0,100,0.00,,,-99.99,,2013-02-28 05:01:00,
2013-02-28 00:11:00,33.0,33.0,29.56,WNW,299,2.0,4.0,100,0.00,,,-99.99,,2013-02-28 05:11:00,
2013-02-28 00:22:00,33.0,33.0,29.56,NW,311,3.0,3.0,100,0.00,,,-99.99,,2013-02-28 05:22:00,
2013-02-28 00:31:00,33.0,33.0,29.56,WNW,299,2.0,4.0,100,0.00,,,-99.99,,2013-02-28 05:31:00,
2013-02-28 00:42:00,33.0,33.0,29.56,WNW,299,2.0,4.0,100,0.00,,,-99.99,,2013-02-28 05:42:00,
2013-02-28 00:52:00,33.0,33.0,29.56,NW,308,2.0,5.0,100,0.00,,,-99.99,,2013-02-28 05:52:00,
2013-02-28 01:01:00,33.0,33.0,29.57,NW,313,2.0,2.0,100,0.00,,,-99.99,,2013-02-28 06:01:00,
2013-02-28 01:11:00,33.0,33.0,29.57,NW,313,2.0,2.0,100,0.00,,,-99.99,,2013-02-28 06:11:00,
2013-02-28 01:22:00,33.0,33.0,29.57,NNW,347,1.0,6.0,100,0.00,,,-99.99,,2013-02-28 06:22:00,
2013-02-28 01:32:00,33.0,33.0,29.57,NW,320,3.0,6.0,100,0.00,,,-99.99,,2013-02-28 06:32:00,
2013-02-28 01:42:00,33.0,33.0,29.57,NW,320,3.0,6.0,100,0.00,,,-99.99,,2013-02-28 06:42:00,
2013-02-28 01:52:00,33.0,33.0,29.57,NW,311,1.0,6.0,100,0.00,,,-99.99,,2013-02-28 06:52:00,
2013-02-28 02:01:00,33.0,33.0,29.57,NW,313,0.0,4.0,100,0.01,,,-99.99,,2013-02-28 07:01:00,
2013-02-28 02:11:00,33.0,33.0,29.57,NW,313,0.0,4.0,100,0.01,,,-99.99,,2013-02-28 07:11:00,
2013-02-28 02:21:00,33.0,33.0,29.58,NW,313,3.0,3.0,100,0.01,,,-99.99,,2013-02-28 07:21:00,
2013-02-28 02:31:00,33.0,33.0,29.59,NW,312,2.0,4.0,100,0.01,,,-99.99,,2013-02-28 07:31:00,
2013-02-28 02:41:00,33.0,33.0,29.59,NW,312,2.0,4.0,100,0.01,,,-99.99,,2013-02-28 07:41:00,
2013-02-28 02:52:00,33.0,33.0,29.59,NW,313,0.0,6.0,100,0.01,,,-99.99,,2013-02-28 07:52:00,
2013-02-28 03:01:00,33.0,33.0,29.59,NW,320,3.0,7.0,100,0.01,,,-99.99,,2013-02-28 08:01:00,
2013-02-28 03:11:00,33.0,33.0,29.59,NW,320,3.0,7.0,100,0.01,,,-99.99,,2013-02-28 08:11:00,
2013-02-28 03:22:00,33.0,33.0,29.59,NW,306,3.0,6.0,100,0.00,,,-99.99,,2013-02-28 08:22:00,
2013-02-28 03:32:00,33.0,33.0,29.59,NW,326,0.0,5.0,100,0.00,,,-99.99,,2013-02-28 08:32:00,
2013-02-28 03:42:00,33.0,33.0,29.59,NW,326,0.0,5.0,100,0.00,,,-99.99,,2013-02-28 08:42:00,
2013-02-28 03:53:00,33.0,33.0,29.60,NW,320,1.0,11.0,100,0.01,,,-99.99,,2013-02-28 08:53:00,
2013-02-28 04:03:00,33.0,33.0,29.60,NNW,329,3.0,7.0,100,0.01,,,-99.99,,2013-02-28 09:03:00,
2013-02-28 04:11:00,33.0,33.0,29.60,NNW,329,3.0,7.0,100,0.01,,,-99.99,,2013-02-28 09:11:00,
2013-02-28 04:22:00,33.0,33.0,29.60,NNW,347,5.0,8.0,100,0.02,,,-99.99,,2013-02-28 09:22:00,
2013-02-28 04:32:00,33.0,33.0,29.61,NNW,333,2.0,7.0,100,0.02,,,-99.99,,2013-02-28 09:32:00,
2013-02-28 04:42:00,33.0,33.0,29.61,NNW,333,2.0,7.0,100,0.02,,,-99.99,,2013-02-28 09:42:00,
2013-02-28 04:52:00,33.0,33.0,29.62,NW,319,6.0,10.0,100,0.01,,,-99.99,,2013-02-28 09:52:00,
2013-02-28 05:01:00,33.0,33.0,29.62,NNW,329,6.0,11.0,100,0.01,,,-99.99,,2013-02-28 10:01:00,
2013-02-28 05:11:00,33.0,33.0,29.63,NW,325,5.0,10.0,100,0.01,,,-99.99,,2013-02-28 10:11:00,
2013-02-28 05:22:00,33.0,33.0,29.63,NW,325,5.0,10.0,100,0.01,,,-99.99,,2013-02-28 10:22:00,
2013-02-28 05:32:00,33.0,33.0,29.62,NNW,335,2.0,6.0,100,0.01,,,-99.99,,2013-02-28 10:32:00,
2013-02-28 05:42:00,33.0,33.0,29.62,NNW,335,2.0,6.0,100,0.01,,,-99.99,,2013-02-28 10:42:00,
2013-02-28 05:52:00,33.0,33.0,29.63,NW,304,1.0,4.0,100,0.01,,,-99.99,,2013-02-28 10:52:00,
2013-02-28 06:01:00,33.0,33.0,29.63,NNW,328,5.0,6.0,100,0.01,,,-99.99,,2013-02-28 11:01:00,
2013-02-28 06:11:00,33.0,33.0,29.63,NNW,328,5.0,6.0,100,0.01,,,-99.99,,2013-02-28 11:11:00,
2013-02-28 06:21:00,33.0,33.0,29.65,NW,308,6.0,8.0,100,0.00,,,-99.99,,2013-02-28 11:21:00,
2013-02-28 06:32:00,33.0,33.0,29.65,NW,313,4.0,7.0,100,0.00,,,-99.99,,2013-02-28 11:32:00,
2013-02-28 06:42:00,33.0,33.0,29.65,NW,313,4.0,7.0,100,0.00,,,-99.99,,2013-02-28 11:42:00,
2013-02-28 06:52:00,33.0,33.0,29.65,NNW,339,4.0,10.0,100,0.01,,,-99.99,,2013-02-28 11:52:00,
2013-02-28 07:01:00,33.0,33.0,29.66,NW,306,1.0,8.0,100,0.01,,,-99.99,,2013-02-28 12:01:00,
2013-02-28 07:11:00,33.0,33.0,29.66,NW,306,1.0,8.0,100,0.01,,,-99.99,,2013-02-28 12:11:00,
2013-02-28 07:21:00,33.0,33.0,29.66,NW,305,3.0,11.0,100,0.01,,,-99.99,,2013-02-28 12:21:00,
2013-02-28 07:32:00,33.0,33.0,29.67,NNW,332,3.0,8.0,100,0.01,,,-99.99,,2013-02-28 12:32:00,
2013-02-28 07:42:00,33.0,33.0,29.67,NNW,332,3.0,8.0,100,0.01,,,-99.99,,2013-02-28 12:42:00,
2013-02-28 07:52:00,33.0,33.0,29.68,West,272,2.0,9.0,100,0.01,,,-99.99,,2013-02-28 12:52:00,
2013-02-28 08:01:00,33.0,33.0,29.68,NW,325,3.0,8.0,100,0.00,,,-99.99,,2013-02-28 13:01:00,
2013-02-28 08:11:00,33.0,33.0,29.69,NW,322,4.0,7.0,100,0.00,,,-99.99,,2013-02-28 13:11:00,
2013-02-28 08:21:00,33.0,33.0,29.69,NW,322,4.0,7.0,100,0.00,,,-99.99,,2013-02-28 13:21:00,
2013-02-28 08:32:00,33.0,33.0,29.70,NNW,336,5.0,6.0,100,0.00,,,-99.99,,2013-02-28 13:32:00,
2013-02-28 08:42:00,33.0,33.0,29.70,NNW,336,5.0,6.0,100,0.00,,,-99.99,,2013-02-28 13:42:00,
2013-02-28 08:52:00,34.0,34.0,29.70,North,352,4.0,6.0,100,0.00,,,-99.99,,2013-02-28 13:52:00,
2013-02-28 09:01:00,34.0,34.0,29.71,NNW,336,2.0,14.0,99,0.00,,,-99.99,,2013-02-28 14:01:00,
2013-02-28 09:11:00,34.0,34.0,29.72,WNW,302,3.0,11.0,98,0.01,,,-99.99,,2013-02-28 14:11:00,
2013-02-28 09:22:00,34.0,34.0,29.72,WNW,302,3.0,11.0,98,0.01,,,-99.99,,2013-02-28 14:22:00,
2013-02-28 09:32:00,34.0,34.0,29.72,NNW,339,5.0,7.0,98,0.02,,,-99.99,,2013-02-28 14:32:00,
2013-02-28 09:42:00,34.0,33.0,29.72,NNW,339,3.0,6.0,97,0.02,,,-99.99,,2013-02-28 14:42:00,
2013-02-28 09:52:00,34.0,33.0,29.72,NNW,339,3.0,6.0,97,0.02,,,-99.99,,2013-02-28 14:52:00,
2013-02-28 10:02:00,34.0,33.0,29.73,NNW,335,6.0,8.0,96,0.02,,,-99.99,,2013-02-28 15:02:00,
2013-02-28 10:11:00,35.0,34.0,29.74,North,360,2.0,7.0,96,0.02,,,-99.99,,2013-02-28 15:11:00,
2013-02-28 10:21:00,35.0,34.0,29.74,North,360,2.0,7.0,96,0.02,,,-99.99,,2013-02-28 15:21:00,
2013-02-28 10:32:00,36.0,34.0,29.74,North,360,2.0,6.0,94,0.03,,,-99.99,,2013-02-28 15:32:00,
2013-02-28 10:41:00,36.0,34.0,29.74,North,360,2.0,6.0,94,0.03,,,-99.99,,2013-02-28 15:41:00,
2013-02-28 10:52:00,36.0,34.0,29.75,North,359,5.0,8.0,91,0.02,,,-99.99,,2013-02-28 15:52:00,
2013-02-28 11:01:00,36.0,34.0,29.75,WNW,301,4.0,8.0,91,0.02,,,-99.99,,2013-02-28 16:01:00,
2013-02-28 11:11:00,36.0,34.0,29.76,NNW,344,7.0,13.0,91,0.02,,,-99.99,,2013-02-28 16:11:00,
2013-02-28 11:22:00,36.0,34.0,29.76,NNW,344,7.0,13.0,91,0.02,,,-99.99,,2013-02-28 16:22:00,
2013-02-28 11:32:00,36.0,33.0,29.76,NW,308,4.0,7.0,90,0.03,,,-99.99,,2013-02-28 16:32:00,
2013-02-28 11:42:00,36.0,33.0,29.76,NW,308,4.0,7.0,90,0.03,,,-99.99,,2013-02-28 16:42:00,
2013-02-28 11:52:00,37.0,34.0,29.77,NW,325,3.0,6.0,90,0.02,,,-99.99,,2013-02-28 16:52:00,
2013-02-28 12:01:00,37.0,34.0,29.78,WNW,301,1.0,7.0,90,0.02,,,-99.99,,2013-02-28 17:01:00,
2013-02-28 12:11:00,37.0,34.0,29.78,North,354,8.0,14.0,89,0.01,,,-99.99,,2013-02-28 17:11:00,
2013-02-28 12:21:00,37.0,34.0,29.78,North,354,8.0,14.0,89,0.01,,,-99.99,,2013-02-28 17:21:00,
2013-02-28 12:32:00,37.0,34.0,29.78,NNW,339,5.0,10.0,88,0.00,,,-99.99,,2013-02-28 17:32:00,
2013-02-28 12:42:00,37.0,34.0,29.78,NNW,339,5.0,10.0,88,0.00,,,-99.99,,2013-02-28 17:42:00,
2013-02-28 12:52:00,38.0,34.0,29.78,NNW,330,5.0,8.0,85,0.00,,,-99.99,,2013-02-28 17:52:00,
2013-02-28 13:02:00,38.0,34.0,29.78,North,349,1.0,5.0,84,0.00,,,-99.99,,2013-02-28 18:02:00,
2013-02-28 13:11:00,38.0,34.0,29.79,NW,322,1.0,8.0,85,0.00,,,-99.99,,2013-02-28 18:11:00,
2013-02-28 13:22:00,38.0,34.0,29.79,NW,322,1.0,8.0,85,0.00,,,-99.99,,2013-02-28 18:22:00,
2013-02-28 13:32:00,38.0,34.0,29.79,NNW,328,2.0,6.0,85,0.00,,,-99.99,,2013-02-28 18:32:00,
2013-02-28 13:42:00,38.0,34.0,29.79,NNW,330,9.0,10.0,84,0.00,,,-99.99,,2013-02-28 18:42:00,
2013-02-28 13:52:00,38.0,34.0,29.79,NNW,330,9.0,10.0,84,0.00,,,-99.99,,2013-02-28 18:52:00,
2013-02-28 14:01:00,38.0,34.0,29.79,North,360,8.0,14.0,84,0.00,,,-99.99,,2013-02-28 19:01:00,
2013-02-28 14:11:00,38.0,34.0,29.79,North,360,8.0,14.0,84,0.00,,,-99.99,,2013-02-28 19:11:00,
2013-02-28 14:21:00,38.0,34.0,29.79,NW,311,7.0,9.0,84,0.00,,,-99.99,,2013-02-28 19:21:00,
2013-02-28 14:32:00,38.0,33.0,29.79,NW,309,8.0,11.0,82,0.00,,,-99.99,,2013-02-28 19:32:00,
2013-02-28 14:41:00,38.0,33.0,29.79,NW,309,8.0,11.0,82,0.00,,,-99.99,,2013-02-28 19:41:00,
2013-02-28 14:52:00,38.0,34.0,29.79,NNW,328,7.0,16.0,85,0.00,,,-99.99,,2013-02-28 19:52:00,
2013-02-28 15:01:00,38.0,34.0,29.79,NW,308,7.0,13.0,86,0.00,,,-99.99,,2013-02-28 20:01:00,
2013-02-28 15:12:00,38.0,34.0,29.79,NW,308,7.0,13.0,86,0.00,,,-99.99,,2013-02-28 20:12:00,
2013-02-28 15:22:00,38.0,33.0,29.80,WNW,298,7.0,10.0,83,0.00,,,-99.99,,2013-02-28 20:22:00,
2013-02-28 15:32:00,38.0,32.0,29.80,NNW,333,7.0,13.0,80,0.00,,,-99.99,,2013-02-28 20:32:00,
2013-02-28 15:42:00,38.0,32.0,29.80,NNW,333,7.0,13.0,80,0.00,,,-99.99,,2013-02-28 20:42:00,
2013-02-28 15:52:00,39.0,33.0,29.81,North,356,4.0,5.0,80,0.00,,,-99.99,,2013-02-28 20:52:00,
2013-02-28 16:01:00,38.0,32.0,29.82,NW,322,6.0,11.0,80,0.00,,,-99.99,,2013-02-28 21:01:00,
2013-02-28 16:11:00,38.0,32.0,29.82,NW,322,6.0,11.0,80,0.00,,,-99.99,,2013-02-28 21:11:00,
2013-02-28 16:22:00,37.0,33.0,29.82,NNW,333,7.0,12.0,84,0.00,,,-99.99,,2013-02-28 21:22:00,
2013-02-28 16:32:00,37.0,32.0,29.83,North,352,11.0,16.0,83,0.00,,,-99.99,,2013-02-28 21:32:00,
2013-02-28 16:41:00,37.0,32.0,29.83,North,352,11.0,16.0,83,0.00,,,-99.99,,2013-02-28 21:41:00,
2013-02-28 16:52:00,37.0,32.0,29.84,NNW,328,4.0,13.0,82,0.00,,,-99.99,,2013-02-28 21:52:00,
2013-02-28 17:01:00,37.0,32.0,29.84,NW,311,5.0,14.0,83,0.00,,,-99.99,,2013-02-28 22:01:00,
2013-02-28 17:11:00,37.0,33.0,29.85,North,353,6.0,12.0,84,0.00,,,-99.99,,2013-02-28 22:11:00,
2013-02-28 17:21:00,37.0,33.0,29.85,North,353,6.0,12.0,84,0.00,,,-99.99,,2013-02-28 22:21:00,
2013-02-28 17:32:00,36.0,32.0,29.85,North,353,4.0,14.0,86,0.00,,,-99.99,,2013-02-28 22:32:00,
2013-02-28 17:41:00,36.0,32.0,29.85,North,353,4.0,14.0,86,0.00,,,-99.99,,2013-02-28 22:41:00,
2013-02-28 17:52:00,35.0,32.0,29.85,NW,323,7.0,17.0,88,0.00,,,-99.99,,2013-02-28 22:52:00,
2013-02-28 18:01:00,35.0,32.0,29.86,NW,305,7.0,13.0,87,0.00,,,-99.99,,2013-02-28 23:01:00,
2013-02-28 18:11:00,35.0,32.0,29.87,NNW,330,6.0,7.0,87,0.00,,,-99.99,,2013-02-28 23:11:00,
2013-02-28 18:22:00,35.0,32.0,29.87,NNW,330,6.0,7.0,87,0.00,,,-99.99,,2013-02-28 23:22:00,
2013-02-28 18:31:00,34.0,31.0,29.88,NNW,332,5.0,11.0,89,0.00,,,-99.99,,2013-02-28 23:31:00,
2013-02-28 18:41:00,34.0,31.0,29.88,NNW,332,5.0,11.0,89,0.00,,,-99.99,,2013-02-28 23:41:00,
2013-02-28 18:53:00,34.0,31.0,29.89,NW,315,6.0,10.0,90,0.00,,,-99.99,,2013-02-28 23:53:00,
2013-02-28 19:01:00,34.0,31.0,29.90,NNW,344,5.0,7.0,90,0.00,,,-99.99,,2013-03-01 00:01:00,
2013-02-28 19:11:00,34.0,31.0,29.90,NNW,344,5.0,7.0,90,0.00,,,-99.99,,2013-03-01 00:11:00,
2013-02-28 19:22:00,33.0,30.0,29.90,NW,315,7.0,10.0,90,0.00,,,-99.99,,2013-03-01 00:22:00,
2013-02-28 19:32:00,33.0,30.0,29.90,NW,322,10.0,16.0,90,0.00,,,-99.99,,2013-03-01 00:32:00,
2013-02-28 19:41:00,33.0,30.0,29.90,NW,322,10.0,16.0,90,0.00,,,-99.99,,2013-03-01 00:41:00,
2013-02-28 19:52:00,33.0,30.0,29.91,NW,305,11.0,14.0,90,0.00,,,-99.99,,2013-03-01 00:52:00,
2013-02-28 20:01:00,33.0,30.0,29.92,North,349,6.0,11.0,90,0.00,,,-99.99,,2013-03-01 01:01:00,
2013-02-28 20:11:00,33.0,30.0,29.92,NW,325,6.0,14.0,90,0.00,,,-99.99,,2013-03-01 01:11:00,
2013-02-28 20:21:00,33.0,30.0,29.92,NW,325,6.0,14.0,90,0.00,,,-99.99,,2013-03-01 01:21:00,
2013-02-28 20:32:00,33.0,31.0,29.92,North,356,10.0,13.0,92,0.00,,,-99.99,,2013-03-01 01:32:00,
2013-02-28 20:42:00,33.0,31.0,29.92,North,356,10.0,13.0,92,0.00,,,-99.99,,2013-03-01 01:42:00,
2013-02-28 20:52:00,33.0,31.0,29.93,North,359,6.0,12.0,91,0.00,,,0.11,,2013-03-01 01:52:00,
2013-02-28 21:01:00,33.0,30.0,29.93,North,356,4.0,12.0,90,0.00,,,0.11,,2013-03-01 02:01:00,
2013-02-28 21:11:00,33.0,30.0,29.93,North,360,6.0,8.0,90,0.00,,,0.11,,2013-03-01 02:11:00,
2013-02-28 21:21:00,33.0,30.0,29.93,North,360,6.0,8.0,90,0.00,,,0.11,,2013-03-01 02:21:00,
2013-02-28 21:31:00,32.0,29.0,29.93,North,359,2.0,7.0,89,0.00,,,0.11,,2013-03-01 02:31:00,
2013-02-28 21:42:00,32.0,29.0,29.93,North,359,2.0,7.0,89,0.00,,,0.11,,2013-03-01 02:42:00,
2013-02-28 21:52:00,32.0,29.0,29.93,NW,320,5.0,10.0,90,0.00,,,0.11,,2013-03-01 02:52:00,
2013-02-28 22:01:00,32.0,30.0,29.93,NNW,328,2.0,7.0,91,0.00,,,0.11,,2013-03-01 03:01:00,
2013-02-28 22:11:00,32.0,30.0,29.93,NNW,346,1.0,5.0,92,0.00,,,0.11,,2013-03-01 03:11:00,
2013-02-28 22:21:00,32.0,30.0,29.93,NNW,346,1.0,5.0,92,0.00,,,0.11,,2013-03-01 03:21:00,
2013-02-28 22:32:00,32.0,30.0,29.93,North,356,1.0,7.0,92,0.00,,,0.11,,2013-03-01 03:32:00,
2013-02-28 22:42:00,32.0,30.0,29.93,North,356,1.0,7.0,92,0.00,,,0.11,,2013-03-01 03:42:00,
2013-02-28 22:52:00,32.0,30.0,29.93,NW,319,4.0,5.0,94,0.00,,,0.11,,2013-03-01 03:52:00,
2013-02-28 23:01:00,31.0,31.0,29.93,NNE,16,2.0,3.0,98,0.00,,,0.11,,2013-03-01 04:01:00,
2013-02-28 23:11:00,31.0,31.0,29.93,NNE,16,2.0,3.0,98,0.00,,,0.11,,2013-03-01 04:11:00,
2013-02-28 23:21:00,31.0,30.0,29.93,NNW,339,2.0,3.0,97,0.00,,,0.11,,2013-03-01 04:21:00,
2013-02-28 23:32:00,31.0,30.0,29.93,NNW,332,2.0,11.0,97,0.00,,,0.11,,2013-03-01 04:32:00,
2013-02-28 23:42:00,31.0,30.0,29.93,NNW,332,2.0,11.0,97,0.00,,,0.11,,2013-03-01 04:42:00,
2013-02-28 23:52:00,31.0,30.0,29.93,NW,309,1.0,5.0,97,0.00,,,0.11,,2013-03-01 04:52:00,